Temp
26 25 26 27 28 24 21 20 19 18 18 17 17 17 17 16 16 16 16 16 15 16 16 16 16 17 16 16 16 17 16 13
24 22 23 23 22 21 19 18 17 17 16 16 15 15 15 15 15 16 15 14 15 15 15 16 15 15 16 16 16 16 14 14
23 21 19 18 17 17 17 16 16 17 16 15 15 14 14 15 14 13 13 14 14 13 14 14 14 14 15 15 15 15 15 14
22 20 19 18 16 15 15 16 16 16 15 15 14 14 14 13 12 13 13 13 13 14 14 14 14 14 14 14 14 14 14 14
22 20 18 16 15 14 15 15 15 15 15 15 15 15 14 13 14 13 13 12 13 14 14 14 14 13 13 13 13 14 13 14
22 21 18 16 15 14 14 14 15 15 16 16 16 18 16 15 14 14 13 13 14 14 14 13 12 12 12 12 13 12 12 13
23 21 19 17 16 15 14 14 15 16 17 18 18 18 17 16 16 15 14 13 13 13 13 13 13 13 12 12 12 12 12 12
23 21 20 18 17 15 15 15 16 17 18 18 18 19 19 18 16 16 16 15 14 14 13 13 13 13 13 12 12 12 12 12
24 23 21 19 17 17 18 18 19 19 19 19 19 19 19 19 17 17 17 16 16 14 14 14 14 13 13 12 12 12 12 11
25 24 22 20 19 19 20 21 20 20 20 19 19 19 19 19 18 18 18 18 16 15 14 14 14 13 12 12 12 12 11 11
24 24 23 22 21 21 21 22 21 20 20 19 19 19 18 18 18 17 17 17 16 15 14 14 14 13 12 12 12 12 11 11
24 24 23 23 22 21 21 21 22 21 20 20 19 19 18 18 17 17 16 16 16 15 14 14 14 13 13 12 12 12 11 10
24 24 23 23 22 21 20 20 20 20 20 19 19 18 18 17 16 16 16 15 15 14 14 14 14 13 13 12 12 11 11 10
25 24 24 23 22 22 21 20 20 20 19 19 18 17 17 16 16 16 15 14 14 14 14 13 13 13 13 12 12 11 11 9
25 24 24 23 23 22 22 21 20 20 19 18 17 17 16 16 15 15 14 14 14 14 13 13 12 12 12 11 11 10 10 8
25 24 24 23 23 22 22 21 19 18 18 17 17 16 15 15 14 13 13 12 12 12 12 12 11 11 10 10 10 9 8 6
25 25 24 23 23 21 20 19 17 17 16 16 15 14 13 13 12 12 11 10 9 9 9 9 9 9 8 9 8 7 6 5
25 24 24 23 20 19 18 17 16 15 15 14 13 13 12 11 10 10 9 7 7 7 7 6 6 5 5 7 5 4 3 3
24 23 21 19 17 17 16 15 14 14 13 13 12 11 10 9 8 7 6 6 6 5 2 2 2 2 3 3 2 2 1 1
Height
766 770 769 765 766 769 775 781 784 789 794 801 804 806 810 814 815 816 816 818 820 823 822 824 827 826 828 830 831 832 834 837
768 774 772 771 772 774 777 780 784 787 794 799 803 806 810 812 815 817 819 819 821 822 824 823 826 830 830 831 831 832 834 838
770 776 776 775 776 777 780 783 786 789 793 799 802 806 812 814 816 819 820 822 824 823 822 826 826 827 827 829 832 830 834 837
771 776 777 777 779 779 781 784 786 790 795 799 803 808 811 813 813 816 819 821 821 823 823 826 828 830 831 832 831 831 832 834
770 774 776 778 779 780 782 786 788 792 796 799 802 805 808 811 814 817 818 820 820 821 823 825 826 827 828 829 830 831 832 832
768 771 775 778 780 782 784 786 789 792 796 799 803 804 805 808 812 816 819 819 819 819 821 824 826 827 828 829 830 830 831 831
767 770 774 778 781 783 784 785 788 792 794 798 800 802 805 807 811 813 815 817 820 822 823 825 827 828 828 829 830 830 830 830
764 768 773 777 779 781 783 785 787 790 793 796 799 801 804 806 808 810 813 816 818 820 823 825 827 828 829 829 828 827 827 828
759 762 769 774 778 780 781 783 785 788 792 794 797 800 802 805 807 808 809 812 813 816 820 823 824 824 826 826 827 828 826 824
754 758 765 771 774 776 777 779 783 787 791 793 796 797 799 802 804 806 809 810 811 814 816 819 821 823 823 823 825 826 826 826
751 755 760 766 770 773 775 777 780 784 789 791 794 796 799 800 802 804 807 807 809 810 813 816 818 819 820 821 822 825 826 827
748 752 757 761 766 770 773 775 778 781 785 789 792 794 796 798 800 803 805 805 806 809 810 812 813 816 818 819 820 820 821 823
744 750 754 758 763 766 771 774 776 778 781 785 789 791 794 796 799 801 802 803 804 806 807 809 810 811 814 814 814 814 816 819
739 744 748 754 759 763 767 771 775 777 779 782 784 789 792 795 798 800 801 803 804 804 806 807 808 808 809 811 811 812 814 816
734 739 744 749 754 759 763 767 770 774 777 780 782 786 789 792 795 799 801 803 803 803 804 805 805 806 806 808 808 808 810 814
724 732 737 742 749 754 759 764 768 772 776 778 781 784 788 791 794 798 801 801 802 800 801 801 802 803 803 803 807 807 807 811
715 723 730 737 743 749 755 762 767 772 776 778 780 784 787 790 795 797 799 801 802 800 799 799 798 798 799 801 804 804 807 809
708 714 722 730 740 749 756 762 769 775 777 778 781 785 789 792 795 797 797 797 798 799 799 799 797 798 799 800 804 804 805 810
709 712 720 730 740 750 758 764 772 777 777 780 784 784 787 789 792 794 795 797 798 797 797 798 798 801 799 801 804 805 806 810
Wind_Speed
9 7 6 5 5 25 24 22 22 20 19 18 16 15 15 12 11 11 11 7 7 8 10 9 7 8 4 3 2 3 7 10
11 4 7 14 18 21 20 22 23 23 24 24 21 19 16 14 9 10 9 10 11 9 7 8 6 4 6 7 6 4 10 9
8 5 5 11 12 14 14 19 21 21 22 25 22 22 12 10 7 9 8 8 8 8 7 6 7 7 4 4 5 8 4 12
8 7 8 9 9 10 15 17 19 22 25 20 21 15 14 11 12 11 11 8 9 8 9 8 7 6 7 8 7 7 6 10
9 10 10 9 9 10 14 17 20 22 24 22 23 16 13 11 13 10 9 10 7 7 7 6 7 7 6 7 8 9 9 12
10 11 13 11 9 10 13 17 20 24 20 17 17 14 11 12 12 12 10 8 9 9 7 5 2 2 3 6 7 8 8 9
10 15 15 13 13 13 15 19 23 20 16 18 16 12 16 17 17 14 12 8 7 6 6 6 6 6 6 5 6 5 6 7
12 13 15 16 17 18 18 19 19 18 18 15 13 12 12 15 17 15 15 14 13 12 10 9 8 7 6 5 6 5 5 5
13 14 17 19 20 20 21 23 22 20 17 16 13 14 11 13 15 17 18 18 20 20 14 12 10 9 9 8 7 8 8 8
13 15 20 20 22 23 22 21 19 17 15 14 14 12 13 13 14 8 8 7 9 14 14 14 11 10 10 10 10 10 10 8
12 12 19 22 22 21 20 19 21 19 17 15 14 13 12 9 9 11 12 11 11 11 13 13 12 12 11 11 11 10 9 9
13 12 19 20 22 22 18 15 15 20 18 13 12 14 14 13 12 12 13 12 12 12 13 13 12 13 13 12 12 11 12 11
14 15 19 19 20 22 18 15 12 10 10 13 11 11 11 12 12 13 12 11 11 11 11 11 12 13 14 14 15 14 15 12
14 14 15 19 21 20 23 22 18 16 15 13 14 12 12 12 12 11 11 10 10 9 9 9 10 12 12 13 14 13 15 10
15 13 11 19 20 21 19 18 18 14 13 13 12 13 13 11 10 9 8 7 6 7 8 9 11 12 11 13 13 12 13 12
17 13 12 17 17 19 16 10 12 7 9 10 10 12 9 7 6 5 4 5 5 6 7 7 8 8 10 11 10 10 8 7
17 16 14 15 19 19 14 9 10 9 10 9 9 9 7 6 6 6 5 4 3 5 5 6 8 7 9 12 9 5 6 9
12 11 8 13 16 11 15 12 8 7 8 8 9 9 7 8 6 6 5 4 6 6 6 6 3 3 2 11 5 7 10 7
8 8 11 21 19 13 14 13 8 6 9 10 10 9 8 9 8 8 6 6 6 5 4 2 3 4 3 3 6 6 4 6
Wind_Direction
78 27 353 27 184 129 133 146 166 168 171 174 173 172 168 164 190 193 201 197 159 172 171 161 157 167 172 167 178 70 125 149
93 49 19 75 97 119 144 153 159 162 156 155 151 151 159 165 175 172 175 170 157 149 154 168 176 178 184 182 151 158 136 165
103 95 74 75 92 121 139 152 159 165 166 162 159 153 154 157 171 182 193 173 165 168 163 163 176 201 202 214 213 175 213 209
126 132 120 117 115 133 145 154 161 164 162 157 153 144 147 165 181 172 173 172 189 184 172 179 182 187 200 224 229 229 232 218
138 142 136 128 124 140 152 160 161 163 165 162 156 161 165 181 173 165 178 188 194 175 184 205 243 251 254 262 254 245 256 265
148 144 140 134 136 142 152 161 164 165 164 173 176 179 173 165 158 168 177 192 178 181 201 188 193 195 232 224 223 235 242 269
147 140 138 140 144 148 154 158 163 166 177 178 187 166 172 163 168 170 186 195 195 199 188 199 201 200 220 233 230 242 262 274
157 153 151 147 150 149 155 160 172 180 177 181 182 177 161 161 170 185 181 183 191 202 196 201 213 212 217 217 233 224 241 260
170 159 152 158 159 163 170 174 175 181 173 173 171 173 182 185 184 202 185 194 201 194 188 203 208 208 213 219 220 229 226 224
176 153 158 164 169 177 183 177 165 169 174 177 179 191 196 199 186 185 188 185 150 170 186 204 211 213 217 220 225 230 234 235
169 169 167 170 179 178 186 180 171 175 181 189 194 194 207 210 195 195 212 199 206 192 198 210 217 220 221 225 233 241 235 245
177 180 175 177 172 175 188 194 180 176 180 189 201 199 204 205 207 210 215 209 205 210 210 216 222 234 232 230 235 246 228 227
183 191 182 183 176 173 185 195 205 199 191 198 211 209 219 209 213 214 209 209 209 214 222 227 234 240 241 237 233 234 240 235
191 192 187 187 186 194 185 193 203 208 209 206 198 208 214 218 215 215 205 209 219 215 231 242 249 251 252 251 248 244 250 232
198 201 198 193 195 194 201 191 196 200 214 209 202 201 214 215 207 200 213 219 230 235 241 248 254 258 257 256 250 245 248 242
197 202 199 192 193 195 189 185 185 190 222 204 206 189 185 181 172 190 220 213 238 253 265 271 274 272 262 256 254 241 194 197
198 198 204 191 198 176 168 184 157 186 206 182 159 148 164 173 180 199 214 232 290 280 286 286 270 249 241 256 254 210 204 186
207 197 203 183 123 134 140 135 148 183 178 157 150 160 171 170 186 197 186 212 244 259 259 265 291 284 311 258 228 157 156 169
214 201 132 107 116 113 123 120 130 149 136 146 162 163 165 180 191 192 213 250 269 274 287 294 280 290 295 171 175 147 145 156